sat.trackr.live / text

‹ back to catalog

STARLINK-4583

NORAD 53568 · 2022-101AT

PAYLOAD ACTIVE UNKNOWN

§ Identity

Operator
Country
US
Launch date
2022-08-19
Launch site
AFETR
Launch vehicle
Mass (kg)
RCS (m²)

Purposes: comms

External: N2YO · Heavens-Above · Gunter

§ Orbital elements

Epoch: 2026-05-25T04:11:23.140032Z

Period
95.44 min
Inclination
53.2141°
Eccentricity
0.0001467
Mean motion
15.08840993 rev/d
Perigee alt
538.7 km
Apogee alt
540.8 km
Semi-major
6,917.9 km
B*
7.7688e-5
RAAN
70.6352°
Arg perigee
89.6654°
Mean anomaly
270.4506°
Rev number
20,868

§ Raw data

STARLINK-45831 53568U 22101AT  26145.17457338  .00000949  00000+0  77688-4 0  99902 53568  53.2141  70.6352 0001467  89.6654 270.4506 15.08840993208689

JSON: /api/v1/satellites/53568 · /tle

For live sub-satellite position, see the globe view (requires WebGL).

§ Visibility from observer

Set your observer location to see the next 7 days of passes ≥ 10°. The values pass through the URL so the page stays shareable.

No JS? Fill the form by hand. The geolocation button needs JavaScript.